M I D A S
Marine Information and Data Acquisition System
Tripno 1257 of the Zeeleeuw from 2007-02-15 09:01:34 to 2007-02-15 15:33:29
Back to CruiseResearch ActivitiesStationsMapUnderway DataData graphs

EquipmentUnitsComments
TimeDGPSUTC
LatitudeDGPSDM.mWGS84
LongitudeDGPSDM.mWGS84
SpeedMeteo Stationm/sRelative wind speed
DirectionMeteo StationdegRelative wind direction
TemperatureMeteo Stationdeg CelciusAir temperature
PressureMeteo StationPaAtmospheric pressure
HumidityMeteo Station%Relative humidity
Missing or incorrect values are displayed as -999
Metereological data collected by the RV Zeeleeuw from 2007-02-15 07:24:43 to 2007-02-15 15:42:20
Time Latitude Longitude Speed Direction Temperature Pressure Humidity
2007-02-15 07:25 51°13.598 2°56.094 2 344 2.7 102040 97
2007-02-15 07:26 51°13.598 2°56.094 2.3 356 2.7 102050 97
2007-02-15 07:27 51°13.599 2°56.094 2.3 -999 2.7 102050 96
2007-02-15 07:28 51°13.599 2°56.094 1.6 349 2.8 102050 96
2007-02-15 07:29 51°13.599 2°56.094 1.3 1 2.8 102050 96
2007-02-15 07:30 51°13.599 2°56.094 1.6 349 2.8 102050 96
2007-02-15 07:31 51°13.6 2°56.094 1.9 -999 2.8 102060 96
2007-02-15 07:32 51°13.6 2°56.094 1.9 350 2.8 102060 95
2007-02-15 07:33 51°13.6 2°56.094 2.9 349 2.8 102060 95
2007-02-15 07:34 51°13.599 2°56.094 2.6 344 2.7 102060 95
2007-02-15 07:35 51°13.599 2°56.093 1.8 354 2.7 102070 95
2007-02-15 07:36 51°13.599 2°56.093 1.8 358 2.7 102070 95
2007-02-15 07:37 51°13.599 2°56.094 1.7 347 2.7 102070 95
2007-02-15 07:38 51°13.598 2°56.094 2.2 336 2.7 102070 95
2007-02-15 07:39 51°13.598 2°56.094 1.9 350 2.7 102070 95
2007-02-15 07:40 51°13.599 2°56.094 2 350 2.7 102070 95
2007-02-15 07:41 51°13.598 2°56.093 1.6 359 2.8 102070 95
2007-02-15 07:42 51°13.598 2°56.093 1.7 348 2.8 102070 94
2007-02-15 07:43 51°13.598 2°56.093 1.4 344 2.8 102080 94
2007-02-15 07:44 51°13.597 2°56.093 2.3 360 2.8 102080 94
2007-02-15 07:45 51°13.599 2°56.094 2 349 2.9 102080 94
2007-02-15 07:46 51°13.6 2°56.094 1.9 349 2.9 102080 94
2007-02-15 07:47 51°13.599 2°56.094 2.2 355 3 102080 94
2007-02-15 07:48 51°13.6 2°56.094 2.5 354 3 102080 94
2007-02-15 07:49 51°13.599 2°56.094 1.6 348 3 102080 93
2007-02-15 07:50 51°13.598 2°56.093 2.9 353 3 102080 93
2007-02-15 07:51 51°13.597 2°56.094 2.3 341 3 102080 93
2007-02-15 07:52 51°13.599 2°56.094 2.5 357 3 102080 93
2007-02-15 07:53 51°13.599 2°56.094 3.2 346 3 102080 93
2007-02-15 07:54 51°13.599 2°56.094 2.1 358 3 102080 93
2007-02-15 07:55 51°13.599 2°56.094 1.9 358 3.1 102090 93
2007-02-15 07:56 51°13.599 2°56.094 2.2 21 3.1 102090 93
2007-02-15 07:57 51°13.599 2°56.094 2.6 360 3.1 102090 92
2007-02-15 07:58 51°13.6 2°56.094 3.2 1 3.1 102090 92
2007-02-15 07:59 51°13.6 2°56.094 3.4 357 3.1 102100 92
2007-02-15 08:00 51°13.598 2°56.094 2.1 358 3.1 102100 92
2007-02-15 08:01 51°13.598 2°56.095 2.1 356 3.2 102100 92
2007-02-15 08:02 51°13.597 2°56.095 2.9 7 3.3 102100 92
2007-02-15 08:03 51°13.597 2°56.095 2.4 13 3.3 102100 91
2007-02-15 08:04 51°13.597 2°56.095 2.8 356 3.4 102100 91
2007-02-15 08:05 51°13.598 2°56.094 3.3 357 3.4 102100 91
2007-02-15 08:06 51°13.598 2°56.093 2.8 356 3.4 102110 90
2007-02-15 08:07 51°13.6 2°56.093 2.2 5 3.4 102100 90
2007-02-15 08:08 51°13.599 2°56.093 2.7 351 3.5 102110 90
2007-02-15 08:09 51°13.599 2°56.093 2.7 344 3.5 102110 89
2007-02-15 08:10 51°13.6 2°56.093 2.2 357 3.6 102110 89
2007-02-15 08:11 51°13.599 2°56.094 3.6 10 3.5 102100 89
2007-02-15 08:12 51°13.597 2°56.094 3.9 355 3.6 102110 89
2007-02-15 08:13 51°13.594 2°56.095 2.8 352 3.6 102110 88
2007-02-15 08:14 51°13.596 2°56.095 1.8 350 3.6 102110 88
2007-02-15 08:15 51°13.596 2°56.095 3.3 11 3.7 102110 88
2007-02-15 08:16 51°13.596 2°56.095 4 354 3.7 102110 88
2007-02-15 08:17 51°13.596 2°56.095 3.4 356 3.7 102110 88
2007-02-15 08:18 51°13.596 2°56.094 3.4 357 3.7 102110 87
2007-02-15 08:19 51°13.597 2°56.094 3.1 1 3.7 102110 87
2007-02-15 08:20 51°13.597 2°56.095 2.5 345 3.8 102100 87
2007-02-15 08:21 51°13.597 2°56.094 3.3 -999 3.8 102100 87
2007-02-15 08:22 51°13.597 2°56.094 3.9 350 3.8 102100 87
2007-02-15 08:23 51°13.597 2°56.095 2.6 348 3.8 102100 87
2007-02-15 08:24 51°13.596 2°56.095 2.7 2 3.8 102100 87
2007-02-15 08:25 51°13.597 2°56.094 2.4 340 3.8 102090 87
2007-02-15 08:26 51°13.598 2°56.094 1.7 328 3.8 102100 87
2007-02-15 08:27 51°13.598 2°56.094 3.7 352 3.8 102100 87
2007-02-15 08:28 51°13.597 2°56.094 3.4 354 3.8 102100 87
2007-02-15 08:29 51°13.598 2°56.095 2.3 349 3.8 102110 88
2007-02-15 08:30 51°13.598 2°56.094 3.2 350 3.9 102100 87
2007-02-15 08:31 51°13.598 2°56.094 2.7 350 3.9 102110 88
2007-02-15 08:32 51°13.596 2°56.094 3.2 354 4 102110 87
2007-02-15 08:33 51°13.597 2°56.094 3.6 356 4 102100 87
2007-02-15 08:34 51°13.597 2°56.093 3.2 355 4 102100 87
2007-02-15 08:35 51°13.597 2°56.094 3.6 359 4.1 102100 87
2007-02-15 08:36 51°13.597 2°56.093 3.3 355 4.1 102100 86
2007-02-15 08:37 51°13.598 2°56.093 2.3 346 4.1 102100 86
2007-02-15 08:38 51°13.599 2°56.093 2.7 352 4.1 102100 86
2007-02-15 08:39 51°13.598 2°56.093 2.6 359 4.1 102100 86
2007-02-15 08:40 51°13.599 2°56.093 3.1 354 4.1 102100 86
2007-02-15 08:41 51°13.598 2°56.093 2.9 350 4.1 102100 86
2007-02-15 08:42 51°13.599 2°56.093 2.6 12 4.1 102110 86
2007-02-15 08:43 51°13.599 2°56.093 3 359 4.1 102110 86
2007-02-15 08:44 51°13.598 2°56.093 2.4 345 4.1 102110 87
2007-02-15 08:45 51°13.598 2°56.094 3.3 346 4.1 102110 87
2007-02-15 08:46 51°13.598 2°56.093 2.5 -999 4.1 102110 87
2007-02-15 08:47 51°13.598 2°56.095 2.5 356 4.2 102110 87
2007-02-15 08:48 51°13.598 2°56.095 2.8 352 4.2 102110 87
2007-02-15 08:49 51°13.598 2°56.094 3.7 358 4.3 102120 87
2007-02-15 08:50 51°13.597 2°56.095 3.6 355 4.3 102120 87
2007-02-15 08:51 51°13.596 2°56.094 2.8 358 4.4 102120 87
2007-02-15 08:52 51°13.595 2°56.095 3 356 4.4 102110 87
2007-02-15 08:53 51°13.596 2°56.097 2.8 10 4.5 102120 87
2007-02-15 08:54 51°13.596 2°56.097 3.5 353 4.5 102120 87
2007-02-15 08:55 51°13.597 2°56.096 3.6 353 4.5 102120 86
2007-02-15 08:56 51°13.598 2°56.095 2.8 353 4.5 102120 86
2007-02-15 08:57 51°13.598 2°56.095 3.4 357 4.6 102120 86
2007-02-15 08:58 51°13.598 2°56.094 3.1 360 4.6 102120 87
2007-02-15 08:59 51°13.6 2°56.095 2.6 5 4.6 102120 87
2007-02-15 09:00 51°13.599 2°56.095 2.3 359 4.7 102120 87
2007-02-15 09:01 51°13.599 2°56.095 3.2 354 4.8 102120 87
2007-02-15 09:02 51°13.599 2°56.095 2.9 3 4.8 102120 87
2007-02-15 09:03 51°13.599 2°56.095 2.6 352 4.8 102130 87
2007-02-15 09:04 51°13.599 2°56.09 2.4 7 4.9 102130 87
2007-02-15 09:05 51°13.619 2°56.015 3.6 33 4.9 102130 87
2007-02-15 09:06 51°13.651 2°55.92 1.2 20 5 102120 87
2007-02-15 09:07 51°13.682 2°55.835 3.6 20 5.1 102110 87
2007-02-15 09:08 51°13.696 2°55.767 3 36 5.1 102110 87
2007-02-15 09:09 51°13.703 2°55.716 3.2 32 5.2 102110 87
2007-02-15 09:10 51°13.718 2°55.728 2.5 30 5.3 102110 87
2007-02-15 09:11 51°13.771 2°55.713 1.2 262 5.3 102030 87
2007-02-15 09:12 51°13.857 2°55.626 2.4 249 5.3 102120 87
2007-02-15 09:13 51°13.98 2°55.529 3 37 5.4 102120 87
2007-02-15 09:14 51°14.129 2°55.419 3.4 238 5.5 102120 87
2007-02-15 09:15 51°14.276 2°55.239 7.2 315 5.6 102130 87
2007-02-15 09:16 51°14.417 2°55.009 7 23 5.7 102120 86
2007-02-15 09:17 51°14.58 2°54.786 8 33 5.7 102120 86
2007-02-15 09:18 51°14.688 2°54.49 8.2 36 5.7 102060 86
2007-02-15 09:19 51°14.784 2°54.181 8.6 32 5.6 102060 86
2007-02-15 09:20 51°14.884 2°53.873 7.2 38 5.6 102060 87
2007-02-15 09:21 51°14.987 2°53.566 8 234 5.6 102050 87
2007-02-15 09:22 51°15.092 2°53.262 8.1 32 5.7 102050 88
2007-02-15 09:23 51°15.198 2°52.959 7.7 236 5.7 102050 88
2007-02-15 09:24 51°15.3 2°52.656 9.4 39 5.7 102050 89
2007-02-15 09:25 51°15.332 2°52.326 10.3 33 5.7 102050 89
2007-02-15 09:26 51°15.349 2°51.993 10.5 21 5.7 102040 89
2007-02-15 09:27 51°15.344 2°51.661 10.7 33 5.6 102040 90
2007-02-15 09:28 51°15.34 2°51.33 10.4 35 5.5 102030 90
2007-02-15 09:29 51°15.339 2°50.998 10.4 32 5.6 102030 91
2007-02-15 09:30 51°15.337 2°50.666 9.3 31 5.6 102030 91
2007-02-15 09:31 51°15.337 2°50.335 9.8 34 5.6 102020 92
2007-02-15 09:32 51°15.335 2°50.005 9.5 22 5.7 102020 92
2007-02-15 09:33 51°15.334 2°49.674 9.2 234 5.8 102010 93
2007-02-15 09:34 51°15.334 2°49.343 9.6 34 5.8 102010 93
2007-02-15 09:35 51°15.335 2°49.012 9.2 237 5.8 102010 93
2007-02-15 09:36 51°15.336 2°48.68 10.2 236 5.9 102010 93
2007-02-15 09:37 51°15.335 2°48.348 10.2 235 5.9 102010 93
2007-02-15 09:38 51°15.333 2°48.014 9.6 237 5.9 102010 93
2007-02-15 09:39 51°15.331 2°47.679 8.8 30 5.9 102010 93
2007-02-15 09:40 51°15.33 2°47.346 10.3 237 5.9 102000 93
2007-02-15 09:41 51°15.33 2°47.016 9.1 25 5.9 101990 93
2007-02-15 09:42 51°15.33 2°46.688 10.7 237 6 101990 93
2007-02-15 09:43 51°15.33 2°46.359 10.3 237 5.9 102000 93
2007-02-15 09:44 51°15.33 2°46.03 9.8 21 5.9 102000 93
2007-02-15 09:45 51°15.33 2°45.701 9.4 237 6 102000 93
2007-02-15 09:46 51°15.332 2°45.372 11.2 21 6.1 102000 93
2007-02-15 09:47 51°15.333 2°45.041 9.8 24 6.2 101980 93
2007-02-15 09:48 51°15.335 2°44.711 9.7 33 6.3 101990 93
2007-02-15 09:49 51°15.336 2°44.38 10.4 36 6.3 101980 92
2007-02-15 09:50 51°15.336 2°44.05 11 23 6.3 101980 92
2007-02-15 09:51 51°15.337 2°43.719 10.7 238 6.4 101990 91
2007-02-15 09:52 51°15.34 2°43.389 11.2 26 6.4 101990 91
2007-02-15 09:53 51°15.342 2°43.059 10.2 25 6.3 101990 91
2007-02-15 09:54 51°15.343 2°42.728 9.7 34 6.3 101990 91
2007-02-15 09:55 51°15.343 2°42.396 10.6 240 6.3 102000 91
2007-02-15 09:56 51°15.404 2°42.076 9.1 241 6.3 102000 91
2007-02-15 09:57 51°15.485 2°41.763 9.5 241 6.4 102000 91
2007-02-15 09:58 51°15.564 2°41.445 8.2 242 6.4 102000 90
2007-02-15 09:59 51°15.642 2°41.127 9.4 241 6.5 102010 90
2007-02-15 10:00 51°15.72 2°40.808 9 240 6.5 102000 90
2007-02-15 10:01 51°15.753 2°40.479 10.2 34 6.5 102000 90
2007-02-15 10:02 51°15.736 2°40.151 10.8 233 6.6 101990 89
2007-02-15 10:03 51°15.721 2°39.821 11.8 36 6.5 102000 89
2007-02-15 10:04 51°15.707 2°39.492 9.8 33 6.6 101990 89
2007-02-15 10:05 51°15.692 2°39.161 10.8 33 6.6 101990 89
2007-02-15 10:06 51°15.676 2°38.83 10.6 235 6.7 101990 88
2007-02-15 10:07 51°15.659 2°38.5 11.6 233 6.7 101990 88
2007-02-15 10:08 51°15.642 2°38.175 12.1 34 6.8 101980 88
2007-02-15 10:09 51°15.63 2°37.851 11.6 236 6.9 101980 87
2007-02-15 10:10 51°15.629 2°37.525 11.1 235 7 101980 86
2007-02-15 10:11 51°15.63 2°37.197 11.9 237 7 101990 85
2007-02-15 10:12 51°15.635 2°36.868 11 238 7.1 101980 85
2007-02-15 10:13 51°15.644 2°36.535 12 33 7.1 101980 83
2007-02-15 10:14 51°15.654 2°36.202 11.2 238 7.1 101980 82
2007-02-15 10:15 51°15.663 2°35.868 11.3 31 7.2 101990 82
2007-02-15 10:16 51°15.674 2°35.534 10.2 31 7.2 101990 82
2007-02-15 10:17 51°15.688 2°35.202 11.1 32 7.2 101990 81
2007-02-15 10:18 51°15.7 2°34.874 10.3 34 7.3 101980 82
2007-02-15 10:19 51°15.711 2°34.539 11.4 33 7.3 101990 81
2007-02-15 10:20 51°15.716 2°34.201 12.2 35 7.3 101990 82
2007-02-15 10:21 51°15.719 2°33.864 12.5 33 7.3 101990 82
2007-02-15 10:22 51°15.72 2°33.53 13.3 235 7.3 101990 81
2007-02-15 10:23 51°15.719 2°33.202 13.1 32 7.4 102000 81
2007-02-15 10:24 51°15.718 2°32.875 11.5 31 7.4 102000 81
2007-02-15 10:25 51°15.719 2°32.551 12.7 34 7.4 102000 81
2007-02-15 10:26 51°15.721 2°32.226 10.6 36 7.5 102000 81
2007-02-15 10:27 51°15.711 2°31.904 12.9 36 7.4 102030 81
2007-02-15 10:28 51°15.59 2°31.687 14.5 323 7.4 102000 81
2007-02-15 10:29 51°15.466 2°31.613 11.8 316 7.4 102060 80
2007-02-15 10:30 51°15.38 2°31.516 13.1 320 7.5 102070 80
2007-02-15 10:31 51°15.262 2°31.373 13.7 319 7.5 102070 80
2007-02-15 10:32 51°15.135 2°31.224 12.8 321 7.5 102040 80
2007-02-15 10:33 51°15.007 2°31.077 12.6 320 7.5 102060 80
2007-02-15 10:34 51°14.908 2°30.968 11.1 316 7.5 102070 79
2007-02-15 10:35 51°14.843 2°30.907 11.4 38 7.5 102070 79
2007-02-15 10:36 51°14.797 2°30.845 10.2 35 7.5 102080 79
2007-02-15 10:37 51°14.747 2°30.768 12 33 7.5 102080 79
2007-02-15 10:38 51°14.697 2°30.677 10.7 33 7.6 102070 79
2007-02-15 10:39 51°14.646 2°30.582 11 38 7.5 102070 79
2007-02-15 10:40 51°14.607 2°30.473 9.8 231 7.6 102070 79
2007-02-15 10:41 51°14.571 2°30.374 9.4 35 7.6 102080 79
2007-02-15 10:42 51°14.544 2°30.3 9.1 35 7.7 102070 80
2007-02-15 10:43 51°14.52 2°30.241 8.1 37 7.7 102080 80
2007-02-15 10:44 51°14.5 2°30.187 8.7 38 7.7 102080 80
2007-02-15 10:45 51°14.484 2°30.131 9.1 240 7.8 102080 80
2007-02-15 10:46 51°14.489 2°30.087 7.7 249 7.8 102090 80
2007-02-15 10:47 51°14.543 2°30.05 2.6 37 7.9 102090 80
2007-02-15 10:48 51°14.618 2°30.147 6.6 27 7.9 102080 79
2007-02-15 10:49 51°14.678 2°30.354 8.6 2 7.9 102070 79
2007-02-15 10:50 51°14.64 2°30.495 9.2 342 7.9 102060 79
2007-02-15 10:51 51°14.609 2°30.551 8.2 335 7.9 102070 78
2007-02-15 10:52 51°14.589 2°30.591 9.6 326 7.9 102070 77
2007-02-15 10:53 51°14.568 2°30.579 10.5 32 8 102050 76
2007-02-15 10:54 51°14.543 2°30.5 10.7 38 8.1 102060 76
2007-02-15 10:55 51°14.512 2°30.426 9.5 23 8.1 102050 75
2007-02-15 10:56 51°14.487 2°30.35 9.4 20 8.2 102060 75
2007-02-15 10:57 51°14.459 2°30.282 9.6 24 8.2 102060 74
2007-02-15 10:58 51°14.434 2°30.211 10.6 26 8.3 102060 75
2007-02-15 10:59 51°14.424 2°30.154 8.5 27 8.3 102070 74
2007-02-15 11:00 51°14.432 2°30.11 9.5 252 8.4 102080 75
2007-02-15 11:01 51°14.461 2°30.084 5.6 269 8.4 102090 75
2007-02-15 11:02 51°14.512 2°30.087 3.6 26 8.3 102090 75
2007-02-15 11:03 51°14.613 2°30.149 3.5 39 8.3 102100 75
2007-02-15 11:04 51°14.736 2°30.342 7.5 20 8.3 102100 75
2007-02-15 11:05 51°14.766 2°30.513 8.9 8 8.2 102100 75
2007-02-15 11:06 51°14.768 2°30.631 9.5 1 8.1 102090 76
2007-02-15 11:07 51°14.745 2°30.722 9.3 336 8 102080 76
2007-02-15 11:08 51°14.701 2°30.699 10.6 26 8 102080 76
2007-02-15 11:09 51°14.649 2°30.587 10.9 28 8.1 102080 76
2007-02-15 11:10 51°14.59 2°30.477 10.5 22 8.1 102070 76
2007-02-15 11:11 51°14.529 2°30.369 11 22 8.1 102070 76
2007-02-15 11:12 51°14.483 2°30.274 9.9 25 8 102070 76
2007-02-15 11:13 51°14.448 2°30.213 9.2 27 8.1 102080 77
2007-02-15 11:14 51°14.419 2°30.192 8.2 324 8.1 102080 77
2007-02-15 11:15 51°14.397 2°30.21 8.2 324 8.1 102090 77
2007-02-15 11:16 51°14.385 2°30.187 7 250 8.1 102080 77
2007-02-15 11:17 51°14.423 2°30.148 5.8 27 8.2 102100 77
2007-02-15 11:18 51°14.503 2°30.206 6.4 24 8.2 102100 78
2007-02-15 11:19 51°14.584 2°30.452 5.8 16 8.2 102080 77
2007-02-15 11:20 51°14.72 2°30.736 7.2 9 8.1 102100 77
2007-02-15 11:21 51°14.845 2°31.056 6 7 8.1 102080 77
2007-02-15 11:22 51°14.971 2°31.398 8 10 8.1 102080 78
2007-02-15 11:23 51°15.076 2°31.742 9 7 8 102070 78
2007-02-15 11:24 51°15.174 2°32.095 8.8 9 8 102070 78
2007-02-15 11:25 51°15.255 2°32.391 8.3 14 8 102090 78
2007-02-15 11:26 51°15.33 2°32.659 7.6 15 8 102090 77
2007-02-15 11:27 51°15.393 2°32.923 7.3 6 8.1 102090 77
2007-02-15 11:28 51°15.335 2°33.08 11.6 345 8.1 102090 77
2007-02-15 11:29 51°15.241 2°33.173 13 342 8.2 102080 76
2007-02-15 11:30 51°15.149 2°33.234 11.8 321 8.2 102080 75
2007-02-15 11:31 51°15.097 2°33.15 10.9 323 8.2 102070 74
2007-02-15 11:32 51°15.024 2°33.088 10.8 321 8.2 102070 75
2007-02-15 11:33 51°14.975 2°33.045 10.9 321 8.3 102080 74
2007-02-15 11:34 51°14.952 2°33.02 9.3 24 8.3 102080 73
2007-02-15 11:35 51°14.961 2°33.015 9.4 25 8.3 102080 74
2007-02-15 11:36 51°14.977 2°33.019 8.3 246 8.4 102090 74
2007-02-15 11:37 51°14.994 2°33.027 8.2 247 8.4 102080 75
2007-02-15 11:38 51°15.012 2°33.039 8.9 251 8.4 102070 76
2007-02-15 11:39 51°15.032 2°33.053 9.3 255 8.4 102060 75
2007-02-15 11:40 51°15.045 2°33.113 9.4 269 8.4 102060 76
2007-02-15 11:41 51°15.057 2°33.111 8.4 21 8.3 102060 75
2007-02-15 11:42 51°15.027 2°33.065 10.2 328 8.3 102060 76
2007-02-15 11:43 51°14.98 2°33.052 9 317 8.3 102050 75
2007-02-15 11:44 51°14.958 2°33.024 9.2 21 8.3 102050 75
2007-02-15 11:45 51°14.956 2°33.013 8.9 26 8.4 102060 75
2007-02-15 11:46 51°14.969 2°33.016 8 20 8.4 102060 75
2007-02-15 11:47 51°14.986 2°33.026 8.8 257 8.5 102060 75
2007-02-15 11:48 51°15.005 2°33.037 8.2 260 8.5 102060 75
2007-02-15 11:49 51°15.026 2°33.053 5.2 263 8.5 102060 74
2007-02-15 11:50 51°15.045 2°33.075 9.2 267 8.4 102070 73
2007-02-15 11:51 51°15.051 2°33.128 9.5 22 8.4 102070 73
2007-02-15 11:52 51°15.073 2°33.111 9 248 8.4 102070 74
2007-02-15 11:53 51°15.036 2°33.046 11.8 326 8.5 102050 74
2007-02-15 11:54 51°14.955 2°33.045 11 317 8.5 102070 74
2007-02-15 11:55 51°14.933 2°33.006 7.9 20 8.6 102050 74
2007-02-15 11:56 51°14.94 2°33.003 9.3 24 8.7 102050 74
2007-02-15 11:57 51°14.954 2°33.009 8.6 245 8.7 102060 74
2007-02-15 11:58 51°14.972 2°33.018 10 253 8.9 102050 74
2007-02-15 11:59 51°14.991 2°33.029 6.6 261 8.9 102050 74
2007-02-15 12:00 51°15.011 2°33.042 7.4 261 8.9 102060 74
2007-02-15 12:01 51°15.032 2°33.056 5.6 264 8.9 102050 73
2007-02-15 12:02 51°15.051 2°33.076 6.3 264 8.8 102060 73
2007-02-15 12:03 51°15.054 2°33.138 9.6 270 8.8 102060 73
2007-02-15 12:04 51°15.069 2°33.088 12 26 8.8 102060 73
2007-02-15 12:05 51°15.013 2°33.06 10.5 333 8.8 102030 73
2007-02-15 12:06 51°14.961 2°33.047 10.2 319 8.8 102030 73
2007-02-15 12:07 51°14.945 2°33.014 9.9 26 8.8 102040 73
2007-02-15 12:08 51°14.956 2°33.007 7.4 251 8.9 102050 73
2007-02-15 12:09 51°14.975 2°33.017 11.3 256 8.9 102060 74
2007-02-15 12:10 51°14.994 2°33.031 5.2 261 8.9 102050 74
2007-02-15 12:11 51°15.013 2°33.046 6.4 266 9 102060 74
2007-02-15 12:12 51°15.032 2°33.063 6.3 267 8.9 102060 74
2007-02-15 12:13 51°15.043 2°33.105 7.7 21 8.8 102060 73
2007-02-15 12:14 51°15.061 2°33.109 8.8 252 8.8 102060 74
2007-02-15 12:15 51°15.051 2°33.045 11.1 321 8.8 102030 74
2007-02-15 12:16 51°15.002 2°33.069 9.9 337 8.8 102030 73
2007-02-15 12:17 51°14.963 2°33.074 10 27 8.9 102030 74
2007-02-15 12:18 51°14.949 2°33.037 8.9 22 8.8 102040 74
2007-02-15 12:19 51°14.94 2°33.009 7.2 20 8.9 102040 73
2007-02-15 12:20 51°14.946 2°33.002 7.5 24 9 102050 73
2007-02-15 12:21 51°14.96 2°33.005 6.3 27 9.1 102050 73
2007-02-15 12:22 51°14.979 2°33.018 7.6 254 9.2 102050 73
2007-02-15 12:23 51°14.997 2°33.036 5.3 266 9.3 102060 72
2007-02-15 12:24 51°15.015 2°33.053 5 267 9.2 102060 72
2007-02-15 12:25 51°15.032 2°33.069 6.1 28 9.1 102060 73
2007-02-15 12:26 51°15.051 2°33.084 7.4 270 9 102070 74
2007-02-15 12:27 51°15.074 2°33.076 7.5 259 8.9 102060 73
2007-02-15 12:28 51°15.072 2°32.901 12.2 25 8.9 102040 74
2007-02-15 12:29 51°14.965 2°32.621 13.2 23 8.9 102020 74
2007-02-15 12:30 51°14.844 2°32.343 12.6 317 8.9 102010 74
2007-02-15 12:31 51°14.726 2°32.063 13.1 318 8.9 102010 73
2007-02-15 12:32 51°14.611 2°31.782 12.6 22 8.9 102010 73
2007-02-15 12:33 51°14.495 2°31.502 12.9 315 8.9 102010 73
2007-02-15 12:34 51°14.398 2°31.206 12.6 27 9 102020 74
2007-02-15 12:35 51°14.326 2°30.892 12.8 26 9 102020 73
2007-02-15 12:36 51°14.296 2°30.56 9.9 18 9 102020 72
2007-02-15 12:37 51°14.321 2°30.319 8.3 20 9.1 102040 73
2007-02-15 12:38 51°14.331 2°30.22 8 258 9.2 102030 73
2007-02-15 12:39 51°14.352 2°30.216 6.4 20 9.3 102030 72
2007-02-15 12:40 51°14.376 2°30.227 7.4 23 9.2 102040 71
2007-02-15 12:41 51°14.403 2°30.239 7 19 9.2 102040 71
2007-02-15 12:42 51°14.421 2°30.263 8 19 9.2 102030 71
2007-02-15 12:43 51°14.373 2°30.334 8.4 26 9.2 102030 70
2007-02-15 12:44 51°14.371 2°30.363 7.7 42 9.3 102030 70
2007-02-15 12:45 51°14.396 2°30.398 6.6 32 9.3 102020 69
2007-02-15 12:46 51°14.42 2°30.429 6.3 32 9.3 102020 70
2007-02-15 12:47 51°14.442 2°30.458 6.9 25 9.2 102010 71
2007-02-15 12:48 51°14.463 2°30.487 6.7 20 9.2 102010 71
2007-02-15 12:49 51°14.482 2°30.513 7.5 14 9.2 102010 71
2007-02-15 12:50 51°14.501 2°30.537 7.3 15 9.2 102010 70
2007-02-15 12:51 51°14.52 2°30.558 8 8 9.3 102010 69
2007-02-15 12:52 51°14.539 2°30.579 7.3 11 9.3 102010 69
2007-02-15 12:53 51°14.559 2°30.598 7.6 7 9.3 102000 69
2007-02-15 12:54 51°14.579 2°30.617 7 9 9.3 102010 69
2007-02-15 12:55 51°14.599 2°30.636 7.3 8 9.3 102000 70
2007-02-15 12:56 51°14.618 2°30.662 6 3 9.3 102000 72
2007-02-15 12:57 51°14.614 2°30.711 8.3 337 9.2 102000 72
2007-02-15 12:58 51°14.583 2°30.717 7 316 9.3 101990 71
2007-02-15 12:59 51°14.57 2°30.685 7.1 19 9.4 102000 70
2007-02-15 13:00 51°14.561 2°30.655 8.5 23 9.4 102000 69
2007-02-15 13:01 51°14.553 2°30.633 8.2 19 9.5 101980 68
2007-02-15 13:02 51°14.546 2°30.613 8.4 27 9.5 101990 68
2007-02-15 13:03 51°14.54 2°30.594 8.5 31 9.4 101990 68
2007-02-15 13:04 51°14.534 2°30.574 7.3 25 9.4 101990 68
2007-02-15 13:05 51°14.529 2°30.554 7.9 37 9.5 101990 67
2007-02-15 13:06 51°14.525 2°30.533 8.6 21 9.5 101990 66
2007-02-15 13:07 51°14.522 2°30.512 9.3 19 9.6 101980 67
2007-02-15 13:08 51°14.521 2°30.491 9.6 24 9.6 101980 67
2007-02-15 13:09 51°14.521 2°30.469 8.8 24 9.6 101980 64
2007-02-15 13:10 51°14.523 2°30.445 8.4 21 9.6 101980 63
2007-02-15 13:11 51°14.524 2°30.424 8.5 25 9.7 101980 64
2007-02-15 13:12 51°14.526 2°30.401 8.6 24 9.7 101980 64
2007-02-15 13:13 51°14.532 2°30.378 8.6 28 9.7 101990 64
2007-02-15 13:14 51°14.542 2°30.362 8.1 25 9.7 101980 63
2007-02-15 13:15 51°14.556 2°30.355 7.9 19 9.8 101970 65
2007-02-15 13:16 51°14.572 2°30.352 6.6 19 9.8 101990 65
2007-02-15 13:17 51°14.591 2°30.351 8.8 20 9.9 101980 65
2007-02-15 13:18 51°14.61 2°30.351 8.3 250 9.9 101980 65
2007-02-15 13:19 51°14.631 2°30.354 10 255 9.9 101970 65
2007-02-15 13:20 51°14.654 2°30.358 9.5 258 9.9 101970 64
2007-02-15 13:21 51°14.676 2°30.365 4.9 263 9.9 101970 65
2007-02-15 13:22 51°14.7 2°30.372 7.3 261 9.8 101970 66
2007-02-15 13:23 51°14.724 2°30.375 5.9 262 9.7 101960 65
2007-02-15 13:24 51°14.744 2°30.363 9.2 250 9.7 101960 66
2007-02-15 13:25 51°14.757 2°30.344 8.6 24 9.8 101950 66
2007-02-15 13:26 51°14.763 2°30.327 8.6 20 9.8 101960 66
2007-02-15 13:27 51°14.765 2°30.315 7.6 315 9.8 101950 65
2007-02-15 13:28 51°14.764 2°30.312 8.1 323 9.8 101960 65
2007-02-15 13:29 51°14.759 2°30.315 8.5 326 9.7 101960 64
2007-02-15 13:30 51°14.751 2°30.319 4.4 322 9.8 101960 63
2007-02-15 13:31 51°14.745 2°30.309 9.5 25 9.8 101950 63
2007-02-15 13:32 51°14.742 2°30.29 8.8 18 9.8 101950 62
2007-02-15 13:33 51°14.738 2°30.278 9.8 322 9.8 101950 63
2007-02-15 13:34 51°14.732 2°30.276 9.8 329 9.8 101960 62
2007-02-15 13:35 51°14.724 2°30.281 10 331 9.8 101960 61
2007-02-15 13:36 51°14.714 2°30.289 10 335 9.8 101960 62
2007-02-15 13:37 51°14.702 2°30.299 9.9 332 9.8 101960 62
2007-02-15 13:38 51°14.688 2°30.309 8.3 333 9.8 101960 63
2007-02-15 13:39 51°14.673 2°30.316 8.1 332 9.8 101960 64
2007-02-15 13:40 51°14.657 2°30.323 9.4 334 9.7 101960 65
2007-02-15 13:41 51°14.639 2°30.331 8.1 333 9.7 101960 66
2007-02-15 13:42 51°14.619 2°30.338 8 331 9.7 101960 67
2007-02-15 13:43 51°14.599 2°30.341 8.8 327 9.6 101960 67
2007-02-15 13:44 51°14.579 2°30.339 8.3 325 9.6 101960 67
2007-02-15 13:45 51°14.559 2°30.331 8.1 324 9.6 101960 67
2007-02-15 13:46 51°14.548 2°30.322 7.3 320 9.7 101960 67
2007-02-15 13:47 51°14.546 2°30.316 8.2 320 9.7 101960 67
2007-02-15 13:48 51°14.553 2°30.309 7.5 26 9.7 101960 65
2007-02-15 13:49 51°14.566 2°30.301 7 21 9.8 101950 64
2007-02-15 13:50 51°14.583 2°30.295 7.1 247 9.8 101950 65
2007-02-15 13:51 51°14.602 2°30.292 7.9 256 9.8 101960 65
2007-02-15 13:52 51°14.622 2°30.291 4.8 263 9.9 101970 65
2007-02-15 13:53 51°14.641 2°30.292 5.1 265 9.8 101970 66
2007-02-15 13:54 51°14.66 2°30.294 5.7 269 9.7 101970 67
2007-02-15 13:55 51°14.679 2°30.294 5.6 267 9.7 101970 68
2007-02-15 13:56 51°14.697 2°30.295 5.1 266 9.6 101970 68
2007-02-15 13:57 51°14.716 2°30.295 4.6 265 9.6 101970 68
2007-02-15 13:58 51°14.735 2°30.297 7.5 263 9.6 101970 67
2007-02-15 13:59 51°14.757 2°30.284 7 262 9.6 101980 66
2007-02-15 14:00 51°14.778 2°30.237 8.2 259 9.7 101970 67
2007-02-15 14:01 51°14.796 2°30.196 8.3 254 9.7 101970 67
2007-02-15 14:02 51°14.811 2°30.169 7.4 255 9.8 101960 67
2007-02-15 14:03 51°14.826 2°30.15 8.1 252 9.8 101960 66
2007-02-15 14:04 51°14.84 2°30.137 8.8 257 9.8 101960 66
2007-02-15 14:05 51°14.856 2°30.126 9.4 256 9.9 101950 65
2007-02-15 14:06 51°14.866 2°30.082 9.4 20 9.9 101950 64
2007-02-15 14:07 51°14.862 2°30.01 10 239 10 101950 63
2007-02-15 14:08 51°14.851 2°29.941 9.5 21 10 101940 63
2007-02-15 14:09 51°14.847 2°29.897 8.2 19 10 101950 63
2007-02-15 14:10 51°14.85 2°29.868 9.4 19 10 101960 64
2007-02-15 14:11 51°14.858 2°29.847 8.9 26 10 101960 64
2007-02-15 14:12 51°14.868 2°29.831 8.6 27 9.9 101960 63
2007-02-15 14:13 51°14.839 2°29.81 10.7 342 9.9 101970 62
2007-02-15 14:14 51°14.814 2°29.877 8.9 360 9.9 101960 63
2007-02-15 14:15 51°14.814 2°29.939 7.4 7 9.7 101960 64
2007-02-15 14:16 51°14.817 2°29.998 10.4 9 9.7 101960 63
2007-02-15 14:17 51°14.83 2°30.061 8 25 9.7 101960 64
2007-02-15 14:18 51°14.915 2°30.228 6.9 12 9.7 101970 64
2007-02-15 14:19 51°15.061 2°30.504 6 7 9.7 101970 65
2007-02-15 14:20 51°15.207 2°30.782 7.1 356 9.6 101970 68
2007-02-15 14:21 51°15.354 2°31.07 6.6 357 9.5 101960 70
2007-02-15 14:22 51°15.498 2°31.352 6.5 360 9.4 101960 72
2007-02-15 14:23 51°15.638 2°31.629 6.8 2 9.3 101960 71
2007-02-15 14:24 51°15.778 2°31.916 7.5 2 9.3 101960 71
2007-02-15 14:25 51°15.827 2°32.251 12.1 354 9.3 101940 70
2007-02-15 14:26 51°15.766 2°32.565 12.5 348 9.4 101950 69
2007-02-15 14:27 51°15.715 2°32.885 12.1 352 9.4 101940 68
2007-02-15 14:28 51°15.693 2°33.232 12.5 353 9.4 101940 69
2007-02-15 14:29 51°15.673 2°33.58 12.1 353 9.4 101930 67
2007-02-15 14:30 51°15.654 2°33.933 12.4 352 9.5 101930 67
2007-02-15 14:31 51°15.637 2°34.288 12.2 352 9.4 101930 68
2007-02-15 14:32 51°15.625 2°34.646 12.2 352 9.5 101930 70
2007-02-15 14:33 51°15.611 2°35.001 11.5 352 9.4 101930 70
2007-02-15 14:34 51°15.586 2°35.349 12.2 352 9.4 101930 70
2007-02-15 14:35 51°15.563 2°35.712 11.6 351 9.4 101930 71
2007-02-15 14:36 51°15.537 2°36.068 12.1 350 9.4 101930 70
2007-02-15 14:37 51°15.512 2°36.422 12 352 9.4 101930 69
2007-02-15 14:38 51°15.489 2°36.771 11.3 352 9.4 101930 68
2007-02-15 14:39 51°15.462 2°37.116 13.3 354 9.4 101940 69
2007-02-15 14:40 51°15.427 2°37.458 11.7 353 9.4 101940 67
2007-02-15 14:41 51°15.393 2°37.799 12.3 355 9.5 101930 66
2007-02-15 14:42 51°15.359 2°38.141 11.6 354 9.5 101930 64
2007-02-15 14:43 51°15.326 2°38.482 11.8 353 9.6 101930 63
2007-02-15 14:44 51°15.289 2°38.837 10.8 348 9.6 101930 63
2007-02-15 14:45 51°15.255 2°39.187 10.8 345 9.6 101940 66
2007-02-15 14:46 51°15.217 2°39.536 10.4 348 9.5 101940 68
2007-02-15 14:47 51°15.183 2°39.882 11.9 347 9.4 101930 68
2007-02-15 14:48 51°15.144 2°40.225 11.9 349 9.4 101930 68
2007-02-15 14:49 51°15.107 2°40.566 11.9 349 9.5 101930 67
2007-02-15 14:50 51°15.07 2°40.899 12.2 350 9.5 101930 66
2007-02-15 14:51 51°15.032 2°41.244 12.9 347 9.6 101920 66
2007-02-15 14:52 51°14.993 2°41.581 12.5 349 9.5 101930 67
2007-02-15 14:53 51°14.954 2°41.931 12 348 9.5 101930 69
2007-02-15 14:54 51°14.915 2°42.272 12.3 350 9.5 101920 69
2007-02-15 14:55 51°14.884 2°42.614 12.9 351 9.5 101910 68
2007-02-15 14:56 51°14.875 2°42.961 13.1 350 9.5 101920 68
2007-02-15 14:57 51°14.867 2°43.31 12.8 350 9.5 101920 69
2007-02-15 14:58 51°14.856 2°43.659 12 352 9.5 101910 67
2007-02-15 14:59 51°14.857 2°44.003 13.6 355 9.5 101910 67
2007-02-15 15:00 51°14.859 2°44.36 13.2 354 9.6 101910 66
2007-02-15 15:01 51°14.862 2°44.707 12.2 357 9.6 101910 65
2007-02-15 15:02 51°14.865 2°45.055 12 356 9.6 101910 65
2007-02-15 15:03 51°14.866 2°45.402 13.1 357 9.6 101910 65
2007-02-15 15:04 51°14.87 2°45.749 13.4 357 9.7 101920 63
2007-02-15 15:05 51°14.874 2°46.093 12.1 356 9.7 101920 65
2007-02-15 15:06 51°14.878 2°46.436 12 355 9.7 101920 65
2007-02-15 15:07 51°14.873 2°46.78 11.3 353 9.6 101930 67
2007-02-15 15:08 51°14.864 2°47.126 12.3 351 9.7 101920 65
2007-02-15 15:09 51°14.852 2°47.482 12.7 351 9.7 101930 66
2007-02-15 15:10 51°14.833 2°47.829 12.8 356 9.7 101920 65
2007-02-15 15:11 51°14.831 2°48.175 11.6 355 9.7 101920 64
2007-02-15 15:12 51°14.83 2°48.52 12.6 354 9.8 101920 64
2007-02-15 15:13 51°14.826 2°48.864 11.8 354 9.8 101920 65
2007-02-15 15:14 51°14.824 2°49.212 10.7 352 9.8 101920 65
2007-02-15 15:15 51°14.822 2°49.56 12.9 356 9.7 101920 64
2007-02-15 15:16 51°14.819 2°49.907 12.3 357 9.8 101920 65
2007-02-15 15:17 51°14.817 2°50.247 11.7 353 9.9 101930 64
2007-02-15 15:18 51°14.813 2°50.596 12.9 351 9.8 101920 63
2007-02-15 15:19 51°14.807 2°50.936 11.5 354 9.9 101920 63
2007-02-15 15:20 51°14.804 2°51.273 12.3 356 9.9 101920 63
2007-02-15 15:21 51°14.803 2°51.614 10.9 353 9.9 101930 63
2007-02-15 15:22 51°14.802 2°51.957 12.6 356 9.9 101920 63
2007-02-15 15:23 51°14.796 2°52.3 12.4 357 9.9 101920 61
2007-02-15 15:24 51°14.782 2°52.642 13.9 356 9.9 101920 61
2007-02-15 15:25 51°14.766 2°52.984 11.4 355 10 101930 61
2007-02-15 15:26 51°14.741 2°53.322 13.7 354 10 101940 61
2007-02-15 15:27 51°14.705 2°53.668 11.9 352 10 101920 57
2007-02-15 15:28 51°14.659 2°54.009 11.7 352 10.1 101930 59
2007-02-15 15:29 51°14.606 2°54.345 14.7 349 10.2 101920 57
2007-02-15 15:30 51°14.529 2°54.666 13.6 348 10.2 101920 55
2007-02-15 15:31 51°14.419 2°54.963 10.8 335 10.3 101940 56
2007-02-15 15:32 51°14.283 2°55.228 12.8 340 10.4 101940 56
2007-02-15 15:33 51°14.131 2°55.415 11.9 330 10.4 101940 56
2007-02-15 15:34 51°14.014 2°55.496 12.5 331 10.5 101950 56
2007-02-15 15:35 51°13.883 2°55.581 10.1 331 10.5 101940 56
2007-02-15 15:36 51°13.764 2°55.693 9.8 334 10.6 101940 56
2007-02-15 15:37 51°13.691 2°55.818 7.2 346 10.5 101950 57
2007-02-15 15:38 51°13.65 2°55.91 8 335 10.5 101960 58
2007-02-15 15:39 51°13.617 2°55.998 5.5 338 10.5 101960 58
2007-02-15 15:40 51°13.6 2°56.078 4.3 10 10.4 101950 57
2007-02-15 15:41 51°13.6 2°56.089 4.2 360 10.4 101960 58